Weather in Naydenovka

Russia / Republic of Crimea     45°16′20″N   34°27′01″E
temp.,
°C
wind,
m/s
gust,
m/s
humid.,
%
clouds,
%
prec.,
mm/h
press.,
hPa
HPBL,
m
2 march, tue
tue200:000ne11920 0.0 103022
03:000nw11921 0.0 103022
06:000w119238 0.0 103024
09:00+1w228019 0.0 1031193
12:00+5wnw34570 0.0 10301006
15:00+7w56520 0.0 10291159
18:00+4wsw79670 0.0 1026715
21:00+2wsw7127742 0.0 1026665
3 march, wed
wed300:00+2wsw8158035 0.0 1024525
03:00+3wsw10178561 0.0 1022665
06:00+3nw6108999 0.0 1021728
09:00+3nw5974100 0.1 10241030
12:00+4nnw687173 0.1 10251009
15:00+7nnw564953 0.1 10261293
18:00+6nnw36550 0.0 1027381
21:00+3wnw12630 0.0 102922
4 march, thu
thu400:00+2sw23680 0.0 102931
03:00+2sw33700 0.0 102839
06:00+1sw33690 0.0 102738
09:00+4sw35560 0.0 1027237
12:00+8sw45460 0.0 10251122
15:00+9wsw56460 0.0 10231292
18:00+7wsw58560 0.0 1021645
21:00+3sw35740 0.0 1021131
5 march, fri
fri500:00+2ssw23790 0.0 102049
03:00+1ssw22800 0.0 101925
06:00+1ssw22750 0.0 101824
09:00+5s22601 0.0 1017107
12:00+12ssw47390 0.0 1016943
15:00+14sw6103617 0.0 10151284
18:00+10ssw384964 0.0 1014294
21:00+7ssw385858 0.0 1014201
6 march, sat
sat600:00+7sw51468100 0.0 1014407
03:00+7sw61372100 0.0 1013287
06:00+7sw51069100 0.0 1013197
09:00+8wnw4881100 0.0 1014418
12:00+4n5878100 0.0 1015433
15:00+1n6995100 0.9 1016457
18:000nnw3691100 2.5 1018529
21:00+1nw2468100 2.9 1021364